User: anonymous   Login
Location: Caltech
(34.1382°N, 118.1253°W)
Time: 08:42:44
(UTC-07:00)
Language:

Cosmos 676 Rocket - Orbit

View from above orbital plane
View from above orbital plane
View from above satellite
View from above satellite

Ground track
Ground track

The orbit data is extracted from the following two-line orbital elements,

1  7434U 74071B   17175.53601851 -.00000054 +00000-0 -93048-5 0  9997
2  7434 074.0446 200.5316 0019528 110.5449 249.7801 14.36634705237496
Epoch (UTC): 24 June 2017 12:51:51
Eccentricity: 0.0019528
inclination: 74.0446°
perigee height: 755 km
apogee height: 783 km
right ascension of ascending node: 200.5316°
argument of perigee: 110.5449°
revolutions per day: 14.36634705
mean anomaly at epoch: 249.7801°
orbit number at epoch: 23749

The dashed part of the orbit path shows where the satellite is in the earth's shadow,  

DLR